Regional Weather Roundup
Issued by NWS Sioux Falls, SD

Home | Current Version | Previous Version | Text Only | Print | Product List | Glossary Off
Versions: 1 2 3 4 5 6 7 8 9 10 11 12 13 14 15 16 17 18 19 20 21 22 23 24 25 26 27 28 29 30 31 32 33 34 35 36 37 38 39 40 41 42 43 44 45 46 47 48 49 50

000
ASUS43 KFSD 301602
RWRFSD

WEATHER ROUNDUP FOR SE SOUTH DAKOTA/SW MINNESOTA/NW IOWA
NATIONAL WEATHER SERVICE SIOUX FALLS SD
1100 AM CDT SAT JUL 30 2016

NOTE: "FAIR" INDICATES FEW OR NO CLOUDS BELOW 12,000 FEET WITH NO
SIGNIFICANT WEATHER AND OR OBSTRUCTIONS TO VISIBILITY.


SDZ038>040-050-052>070-301700-
SOUTHEAST SOUTH DAKOTA

CITY           SKY/WX    TMP DP  RH WIND       PRES   REMARKS
BROOKINGS      MOSUNNY   73  60  63 S8        30.03S
CHAMBERLAIN    SUNNY     78  66  66 SE9       29.96F
HURON          SUNNY     76  60  57 SE14      29.97F
MADISON        FAIR      72  64  78 S10       30.04S
MITCHELL       SUNNY     78  63  59 S13       29.98F
SIOUX FALLS    MOSUNNY   74  62  66 S9        30.03S
YANKTON        SUNNY     75  63  64 SE9       29.99F
$$

MNZ071-072-080-081-089-090-097-098-301700-
SOUTHWEST MINNESOTA

CITY           SKY/WX    TMP DP  RH WIND       PRES   REMARKS
FAIRMONT       SUNNY     73  54  49 CALM      30.04S
JACKSON        SUNNY     72  54  53 CALM      30.06S
LUVERNE        PTSUNNY   72  59  64 CALM      30.05S
MARSHALL       MOSUNNY   75  56  51 CALM      30.04S
MONTEVIDEO     SUNNY     75  61  60 SW5       30.05S
REDWOOD FALLS  SUNNY     74  55  51 VRB3      30.03F
TRACY          SUNNY     74  55  51 E3        30.05R
WINDOM         SUNNY     73  52  46 SW5       30.05S
WORTHINGTON    SUNNY     73  55  53 SE5       30.06S
$$

IAZ001>003-012>014-020>022-031-032-NEZ013-014-SDZ071-301700-
NORTHWEST IOWA

CITY           SKY/WX    TMP DP  RH WIND       PRES   REMARKS
CHEROKEE       MOSUNNY   74  61  65 CALM      30.04F
DENISON        MOSUNNY   73  64  73 SW3       30.02F
ESTHERVILLE    SUNNY     73  58  59 CALM      30.05S
LE MARS        SUNNY     75  63  64 S7        30.04F
SHELDON        MOSUNNY   73  61  64 VRB3      30.03F
SIOUX CITY     SUNNY     76  63  64 VRB6      30.02F
SPENCER        SUNNY     74  56  53 CALM      30.05S
STORM LAKE     MOSUNNY   73  63  68 CALM      30.05F
$$

ABBREVIATIONS USED IN REMARKS
   TC - TEMPERATURE IN CELSIUS
  WCI - WIND CHILL INDEX
   HX - HEAT INDEX
  VSB - VISIBILITY





USA.gov is the U.S. government's official web portal to all federal, state and local government web resources and services.